630  
ASUS42 KKEY 310610  
RWRKEY  
 
FLORIDA REGIONAL WEATHER ROUNDUP FOR THE FLORIDA KEYS  
NATIONAL WEATHER SERVICE KEY WEST FLORIDA  
200 AM EDT TUE MAR 31 2015  
   
..SOUTH FLORIDA AND THE KEYS
 
 
 
CITY SKY/WX TMP DP RH WIND PRES REMARKS
 
FORT MYERS CLEAR 60 56 86 CALM 30.18F  
SW REGIONAL AP CLEAR 60 54 80 CALM 30.18F  
NAPLES CLEAR 61 57 87 CALM 30.17F  
MIAMI CLEAR 67 58 72 NW3 30.17F  
WEST KENDALL CLEAR 60 57 89 W3 30.17F  
HOMESTEAD CLEAR 62 57 82 W2 30.16F  
MARATHON CLEAR 62 57 83 CALM 30.16F  
BOCA CHICA NAS CLEAR 67 57 70 NE5 30.16F  
KEY WEST INTL CLEAR 65 58 78 NE5 30.17F  
   
..INTERNATIONAL WEATHER
 
 
 
CITY SKY/WX TMP DP RH WIND PRES REMARKS
 
NASSAU BAHAMAS PTCLDY 63 61 94 CALM 30.15F  
CANCUN MEXICO CLEAR 75 64 69 E6 30.13F  
COZUMEL MEXICO PTCLDY 70 64 83 E5 30.13F  
 
ADJACENT COASTAL WATERS...  
 
STATION/POSITION TIME SKY/WX TEMP WIND PRES WAVE
 
AIR SEA DIR/SP/G HT/PER  
(UTC) (F) (DEG/KT/KT) (MB) (FT/S)  
PULASKI SHOAL LI 0500 71 50/ 7/ 7 1022.1F  
SAND KEY 0550 71 40/ 7/ 9 1021.4F  
SOMBRERO KEY 0600 71 20/ 2/ 4 1022.0F  
LONG KEY 0500 71 73 330/ 5/ 6 1022.5F  
MOLASSES REEF 0600 72 76 50/ 4/ 5 1021.2F  
FOWEY ROCKS NOT AVBL  
 

 
 
CLICK HERE TO GO TO PREVIOUS BULLETINS.

The Nexlab FL Page Main Text Page